When you browse on this site, cookies collect data to enhance your experience and personalize the content and advertising you see.
Visit our Privacy Policy to learn more. By continuing to use the site, you agree to this use of cookies and data.
  • In Belgium
  • List of Countries
  • For 7 days
  • Water Temperature
  • Satellite Maps
  • Weather Map
  • Weather Widgets
  • user-avatar
    Login

    Hourly Weather Lemeshiha

    Today, 24 June, Monday

    Time Temperature Precipitation Wind Pressure Humidity
    00:00 +12°C° 0 mm 1 mps 747 mmHg 76%
    01:00 +12°C° 0 mm 1 mps 747 mmHg 77%
    02:00 +11°C° 0 mm 1 mps 748 mmHg 81%
    03:00 +12°C° 0 mm 1 mps 748 mmHg 80%
    04:00 +13°C° 0 mm 1 mps 747 mmHg 78%
    05:00 +13°C° 0 mm 1 mps 747 mmHg 77%
    06:00 +16°C° 0 mm 1 mps 748 mmHg 69%
    07:00 +19°C° 0 mm 1 mps 748 mmHg 62%
    08:00 +21°C° 0 mm 1 mps 749 mmHg 53%
    09:00 +22°C° 0 mm 1 mps 748 mmHg 49%
    10:00 +23°C° 0 mm 1 mps 748 mmHg 45%
    11:00 +25°C° 0 mm 1 mps 748 mmHg 41%
    12:00 +25°C° 0 mm 2 mps 748 mmHg 41%
    13:00 +25°C° 0 mm 2 mps 748 mmHg 41%
    14:00 +25°C° 0 mm 3 mps 749 mmHg 41%
    15:00 +24°C° 0 mm 3 mps 748 mmHg 45%
    16:00 +24°C° 0 mm 3 mps 748 mmHg 48%
    17:00 +22°C° 0 mm 3 mps 748 mmHg 51%
    18:00 +20°C° 0 mm 3 mps 749 mmHg 59%
    19:00 +18°C° 0 mm 2 mps 749 mmHg 67%
    20:00 +16°C° 0 mm 2 mps 749 mmHg 75%
    21:00 +15°C° 0 mm 1 mps 749 mmHg 75%
    22:00 +14°C° 0 mm 1 mps 750 mmHg 76%
    23:00 +13°C° 0 mm 1 mps 750 mmHg 76%

    Tomorrow, 25 June, Tuesday

    Time Temperature Precipitation Wind Pressure Humidity
    00:00 +13°C° 0 mm 1 mps 750 mmHg 76%
    01:00 +12°C° 0 mm 1 mps 751 mmHg 77%
    02:00 +12°C° 0 mm 1 mps 752 mmHg 77%
    03:00 +12°C° 0 mm 1 mps 752 mmHg 77%
    04:00 +13°C° 0 mm 1 mps 751 mmHg 78%
    05:00 +13°C° 0 mm 1 mps 751 mmHg 78%
    06:00 +15°C° 0 mm 1 mps 752 mmHg 69%
    07:00 +17°C° 0 mm 2 mps 752 mmHg 60%
    08:00 +19°C° 0 mm 2 mps 752 mmHg 51%
    09:00 +20°C° 0 mm 2 mps 752 mmHg 46%
    10:00 +21°C° 0 mm 2 mps 752 mmHg 41%
    11:00 +23°C° 0 mm 2 mps 752 mmHg 36%
    12:00 +23°C° 0 mm 2 mps 752 mmHg 36%
    13:00 +24°C° 0 mm 2 mps 752 mmHg 36%
    14:00 +24°C° 0 mm 2 mps 752 mmHg 36%
    15:00 +24°C° 0 mm 2 mps 752 mmHg 38%
    16:00 +24°C° 0 mm 2 mps 751 mmHg 41%
    17:00 +23°C° 0 mm 2 mps 751 mmHg 43%
    18:00 +20°C° 0 mm 2 mps 751 mmHg 51%
    19:00 +20°C° 0 mm 1 mps 751 mmHg 60%
    20:00 +18°C° 0 mm 1 mps 751 mmHg 68%
    21:00 +16°C° 0 mm 1 mps 750 mmHg 68%
    22:00 +14°C° 0 mm 0 mps 750 mmHg 68%
    23:00 +13°C° 0 mm 0 mps 750 mmHg 68%

    Day after tomorrow, 26 June, Wednesday

    Time Temperature Precipitation Wind Pressure Humidity
    00:00 +14°C° 0 mm 1 mps 750 mmHg 68%
    01:00 +14°C° 0 mm 1 mps 750 mmHg 68%
    02:00 +14°C° 0 mm 1 mps 750 mmHg 68%
    03:00 +14°C° 0 mm 1 mps 750 mmHg 69%
    04:00 +14°C° 0 mm 1 mps 749 mmHg 70%
    05:00 +15°C° 0 mm 1 mps 749 mmHg 71%
    06:00 +16°C° 0.1 mm 1 mps 749 mmHg 71%
    07:00 +16°C° 0.1 mm 1 mps 749 mmHg 71%
    08:00 +18°C° 0.1 mm 1 mps 749 mmHg 71%
    09:00 +19°C° 0.4 mm 1 mps 748 mmHg 73%
    10:00 +19°C° 0.4 mm 1 mps 748 mmHg 76%
    11:00 +20°C° 0.4 mm 1 mps 747 mmHg 79%
    12:00 +19°C° 0.5 mm 1 mps 747 mmHg 83%
    13:00 +18°C° 0.5 mm 1 mps 747 mmHg 87%
    14:00 +18°C° 0.5 mm 1 mps 747 mmHg 91%
    15:00 +16°C° 0 mm 1 mps 746 mmHg 90%
    16:00 +16°C° 0 mm 1 mps 746 mmHg 90%
    17:00 +16°C° 0 mm 1 mps 745 mmHg 90%
    18:00 +15°C° 0.1 mm 1 mps 745 mmHg 90%
    19:00 +15°C° 0.1 mm 1 mps 744 mmHg 90%
    20:00 +13°C° 0.1 mm 0 mps 744 mmHg 90%
    21:00 +14°C° 0.1 mm 1 mps 743 mmHg 91%
    22:00 +14°C° 0.1 mm 1 mps 743 mmHg 92%
    23:00 +13°C° 0.1 mm 1 mps 742 mmHg 93%

    27 June, Thursday

    Time Temperature Precipitation Wind Pressure Humidity
    00:00 +13°C° 0.2 mm 2 mps 741 mmHg 93%
    01:00 +13°C° 0.2 mm 2 mps 740 mmHg 94%
    02:00 +13°C° 0.2 mm 2 mps 739 mmHg 94%
    03:00 +12°C° 4 mm 3 mps 738 mmHg 96%
    04:00 +12°C° 4 mm 3 mps 737 mmHg 97%
    05:00 +12°C° 4 mm 3 mps 736 mmHg 98%
    06:00 +13°C° 2.6 mm 3 mps 736 mmHg 98%
    07:00 +13°C° 2.6 mm 3 mps 735 mmHg 98%
    08:00 +13°C° 2.6 mm 3 mps 734 mmHg 98%
    09:00 +14°C° 0.2 mm 3 mps 733 mmHg 97%
    10:00 +16°C° 0.2 mm 3 mps 733 mmHg 96%
    11:00 +17°C° 0.2 mm 3 mps 732 mmHg 94%
    12:00 +17°C° 1.2 mm 2 mps 731 mmHg 95%
    13:00 +17°C° 1.2 mm 2 mps 731 mmHg 96%
    14:00 +18°C° 1.2 mm 2 mps 730 mmHg 97%
    15:00 +17°C° 5 mm 2 mps 730 mmHg 97%
    16:00 +16°C° 5 mm 2 mps 729 mmHg 98%
    17:00 +16°C° 5 mm 2 mps 729 mmHg 98%
    18:00 +16°C° 3.3 mm 2 mps 728 mmHg 98%
    19:00 +14°C° 3.3 mm 3 mps 728 mmHg 98%
    20:00 +14°C° 3.3 mm 3 mps 728 mmHg 98%
    21:00 +13°C° 1.7 mm 3 mps 728 mmHg 98%
    22:00 +13°C° 1.7 mm 4 mps 727 mmHg 98%
    23:00 +13°C° 1.7 mm 4 mps 727 mmHg 98%

    28 June, Friday

    Time Temperature Precipitation Wind Pressure Humidity
    00:00 +12°C° 2.1 mm 4 mps 727 mmHg 98%
    01:00 +12°C° 2.1 mm 4 mps 726 mmHg 98%
    02:00 +12°C° 2.1 mm 4 mps 726 mmHg 98%
    03:00 +12°C° 2.1 mm 5 mps 726 mmHg 98%
    04:00 +12°C° 2.1 mm 5 mps 725 mmHg 97%
    05:00 +12°C° 2.1 mm 5 mps 725 mmHg 97%
    06:00 +11°C° 1.9 mm 6 mps 725 mmHg 97%
    07:00 +11°C° 1.9 mm 6 mps 725 mmHg 96%
    08:00 +10°C° 1.9 mm 6 mps 725 mmHg 96%
    09:00 +11°C° 0.5 mm 6 mps 725 mmHg 95%
    10:00 +11°C° 0.5 mm 6 mps 725 mmHg 93%
    11:00 +12°C° 0.5 mm 5 mps 726 mmHg 92%
    12:00 +13°C° 0.6 mm 5 mps 726 mmHg 91%
    13:00 +13°C° 0.6 mm 5 mps 726 mmHg 91%
    14:00 +13°C° 0.6 mm 5 mps 726 mmHg 90%
    15:00 +13°C° 0.9 mm 5 mps 727 mmHg 91%
    16:00 +12°C° 0.9 mm 5 mps 727 mmHg 92%
    17:00 +12°C° 0.9 mm 5 mps 727 mmHg 93%
    18:00 +10°C° 0.7 mm 5 mps 727 mmHg 94%
    19:00 +10°C° 0.7 mm 5 mps 727 mmHg 94%
    20:00 +9°C° 0.7 mm 5 mps 727 mmHg 95%
    21:00 +9°C° 0.6 mm 5 mps 727 mmHg 95%
    22:00 +9°C° 0.6 mm 5 mps 727 mmHg 96%
    23:00 +9°C° 0.6 mm 5 mps 727 mmHg 96%

    29 June, Saturday

    Time Temperature Precipitation Wind Pressure Humidity
    00:00 +9°C° 0.7 mm 5 mps 726 mmHg 96%
    01:00 +9°C° 0.7 mm 5 mps 726 mmHg 96%
    02:00 +9°C° 0.7 mm 5 mps 726 mmHg 96%
    03:00 +9°C° 0.9 mm 5 mps 725 mmHg 96%
    04:00 +8°C° 0.9 mm 6 mps 725 mmHg 96%
    05:00 +8°C° 0.9 mm 6 mps 725 mmHg 96%
    06:00 +8°C° 0.5 mm 6 mps 725 mmHg 96%
    07:00 +8°C° 0.5 mm 6 mps 725 mmHg 96%
    08:00 +8°C° 0.5 mm 6 mps 725 mmHg 95%
    09:00 +8°C° 0.5 mm 7 mps 726 mmHg 96%
    10:00 +6°C° 0.5 mm 7 mps 726 mmHg 96%
    11:00 +6°C° 0.5 mm 7 mps 726 mmHg 96%
    12:00 +6°C° 0.3 mm 7 mps 727 mmHg 95%
    13:00 +8°C° 0.3 mm 7 mps 727 mmHg 95%
    14:00 +8°C° 0.3 mm 7 mps 727 mmHg 95%
    15:00 +8°C° 0.5 mm 7 mps 727 mmHg 95%
    16:00 +8°C° 0.5 mm 7 mps 727 mmHg 96%
    17:00 +8°C° 0.5 mm 7 mps 728 mmHg 96%
    18:00 +8°C° 0.1 mm 7 mps 728 mmHg 95%
    19:00 +9°C° 0.1 mm 7 mps 728 mmHg 95%
    20:00 +9°C° 0.1 mm 7 mps 728 mmHg 94%
    21:00 +9°C° 0.1 mm 6 mps 728 mmHg 94%
    22:00 +9°C° 0.1 mm 6 mps 728 mmHg 94%
    23:00 +9°C° 0.1 mm 6 mps 729 mmHg 94%
    Show more